Tracking 19562 objects as of 24-Mar-2019
HD Live streaming from Space Station
objects crossing your sky now

GOES 12

Track GOES 12 now!
GOES 12 is classified as:


NORAD ID: 26871
Int'l Code: 2001-031A
Perigee: 36,070.6 km
Apogee: 36,159.7 km
Inclination: 7.5 °
Period: 1,452.5 minutes
Semi major axis: 42486 km
RCS: 12.8777 m2 (large)
Launch date: July 23, 2001
Source: United States (US)
Launch site: AIR FORCE EASTERN TEST RANGE (AFETR)

GOES 12 is an American geosynchronous weather satellite that was launched by an Atlas 2A rocket from Cape Canaveral at 07:23 UT on 23 July 2001. The spacecraft carries an IR imager, a "sounder", and an X-ray imager. The IR imager is a Cassegrain telescope covering five wavelength channels, 0.55-0.75, 3.80-4.00, 6.50-7.00, 10.20-11.20, and 11.50-12.50 microns. It can provide images covering 3,000 km x 3,000 km every 41 seconds, by scanning the area in 16 square kilometer sections.
aabbcc
Your satellite tracking list
Your tracking list is empty




NASA's NSSDC Master Catalog

Two Line Element Set (TLE):
1 26871U 01031A   19082.59150128 +.00000049 +00000-0 +00000-0 0  9993
2 26871 007.4577 055.5963 0010486 263.4659 301.1933 00.99136270064538
Source of the keplerian elements: AFSPC